| time (UTC) | temp C | wind direction | speed KPH | gust KPH | rain 1hr cm | rain 24hr cm | rain mn cm | humidity % | barometer mb |
| 20260508004601 | 23 | 46 | 0.0 | 1.6 | 0.00 | 0.00 | 0.00 | 89 | 1007.6 |
| 20260508003106 | 23 | 46 | 0.0 | 0.0 | 0.00 | 0.00 | 0.00 | 89 | 1007.7 |
| 20260508001603 | 23 | 46 | 0.0 | 3.2 | 0.00 | 0.00 | 0.00 | 89 | 1007.8 |
| 20260508000058 | 23 | 46 | 1.6 | 4.8 | 0.00 | 0.00 | 0.00 | 89 | 1007.7 |
| 20260508000004 | 23 | 46 | 1.6 | 4.8 | 0.00 | 0.00 | 0.00 | 89 | 1007.7 |
| 20260507234558 | 23 | 65 | 1.6 | 4.8 | 0.00 | 0.00 | 0.00 | 89 | 1007.8 |
| 20260507233058 | 23 | 28 | 3.2 | 6.4 | 0.00 | 0.00 | 0.00 | 88 | 1007.7 |
| 20260507231600 | 23 | 354 | 1.6 | 8.0 | 0.00 | 0.00 | 0.00 | 88 | 1007.7 |
| 20260507230101 | 23 | 41 | 0.0 | 4.8 | 0.00 | 0.00 | 0.00 | 88 | 1007.5 |
| 20260507230001 | 23 | 41 | 0.0 | 4.8 | 0.00 | 0.00 | 0.00 | 88 | 1007.5 |
| 20260507224605 | 23 | 23 | 3.2 | 8.0 | 0.00 | 0.00 | 0.00 | 88 | 1007.5 |
| 20260507223100 | 23 | 30 | 1.6 | 4.8 | 0.00 | 0.00 | 0.00 | 88 | 1007.5 |
| 20260507221558 | 23 | 24 | 0.0 | 3.2 | 0.00 | 0.00 | 0.00 | 88 | 1007.4 |
| 20260507220058 | 23 | 27 | 1.6 | 4.8 | 0.00 | 0.00 | 0.00 | 87 | 1007.2 |
| 20260507220001 | 23 | 27 | 1.6 | 4.8 | 0.00 | 0.00 | 0.00 | 87 | 1007.2 |
| 20260507214559 | 23 | 27 | 1.6 | 4.8 | 0.00 | 0.00 | 0.00 | 87 | 1007.0 |
| 20260507213058 | 23 | 26 | 3.2 | 6.4 | 0.00 | 0.00 | 0.00 | 87 | 1006.9 |
| 20260507211558 | 23 | 51 | 1.6 | 6.4 | 0.00 | 0.00 | 0.00 | 87 | 1006.7 |
| 20260507210120 | 24 | 41 | 3.2 | 8.0 | 0.00 | 0.00 | 0.00 | 87 | 1006.6 |
| 20260507210010 | 24 | 25 | 4.8 | 8.0 | 0.00 | 0.00 | 0.00 | 87 | 1006.6 |
| 20260507204606 | 24 | 8 | 3.2 | 9.7 | 0.00 | 0.00 | 0.00 | 87 | 1006.5 |
| 20260507203107 | 24 | 32 | 4.8 | 8.0 | 0.00 | 0.00 | 0.00 | 86 | 1006.3 |
| 20260507201603 | 25 | 38 | 4.8 | 11.3 | 0.00 | 0.00 | 0.00 | 86 | 1006.2 |
| 20260507200107 | 25 | 23 | 3.2 | 9.7 | 0.00 | 0.00 | 0.00 | 85 | 1006.1 |
| 20260507200006 | 25 | 26 | 3.2 | 11.3 | 0.00 | 0.00 | 0.00 | 85 | 1006.1 |
| 20260507194558 | 25 | 34 | 8.0 | 14.5 | 0.00 | 0.00 | 0.00 | 84 | 1005.9 |
| 20260507193131 | 26 | 39 | 8.0 | 16.1 | 0.00 | 0.00 | 0.00 | 83 | 1006.1 |
| 20260507191601 | 26 | 20 | 4.8 | 12.9 | 0.00 | 0.00 | 0.00 | 82 | 1006.1 |
| 20260507190058 | 26 | 72 | 4.8 | 17.7 | 0.00 | 0.00 | 0.00 | 82 | 1006.1 |
| 20260507190002 | 26 | 79 | 3.2 | 17.7 | 0.00 | 0.00 | 0.00 | 82 | 1006.1 |
| 20260507184559 | 27 | 72 | 8.0 | 12.9 | 0.00 | 0.00 | 0.00 | 80 | 1006.1 |
| 20260507183105 | 27 | 66 | 4.8 | 19.3 | 0.00 | 0.00 | 0.00 | 80 | 1006.2 |
| 20260507181558 | 27 | 121 | 9.7 | 12.9 | 0.00 | 0.00 | 0.00 | 78 | 1006.3 |
| 20260507180059 | 27 | 53 | 6.4 | 12.9 | 0.00 | 0.00 | 0.00 | 79 | 1006.5 |
| 20260507180002 | 27 | 102 | 8.0 | 12.9 | 0.00 | 0.00 | 0.00 | 79 | 1006.5 |
| 20260507174608 | 27 | 89 | 3.2 | 11.3 | 0.00 | 0.00 | 0.00 | 78 | 1006.7 |
| 20260507173133 | 27 | 25 | 1.6 | 11.3 | 0.00 | 0.00 | 0.00 | 79 | 1006.8 |
| 20260507171602 | 27 | 39 | 6.4 | 12.9 | 0.00 | 0.00 | 0.00 | 77 | 1007.0 |
| 20260507170058 | 27 | 62 | 1.6 | 8.0 | 0.00 | 0.00 | 0.00 | 78 | 1007.1 |
| 20260507170000 | 27 | 58 | 1.6 | 9.7 | 0.00 | 0.00 | 0.00 | 79 | 1007.1 |
| 20260507164608 | 27 | 41 | 4.8 | 9.7 | 0.00 | 0.00 | 0.00 | 78 | 1007.5 |
| 20260507163058 | 27 | 25 | 4.8 | 9.7 | 0.00 | 0.00 | 0.00 | 78 | 1008.0 |
| 20260507161610 | 27 | 78 | 3.2 | 11.3 | 0.00 | 0.00 | 0.00 | 78 | 1008.3 |
| 20260507160116 | 26 | 57 | 3.2 | 9.7 | 0.00 | 0.00 | 0.00 | 78 | 1008.7 |
| 20260507160002 | 26 | 119 | 4.8 | 9.7 | 0.00 | 0.00 | 0.00 | 78 | 1008.7 |
| 20260507154558 | 26 | 275 | 0.0 | 6.4 | 0.00 | 0.00 | 0.00 | 78 | 1009.2 |
| 20260507153101 | 26 | 70 | 3.2 | 6.4 | 0.00 | 0.00 | 0.00 | 79 | 1009.7 |
| 20260507151558 | 26 | 41 | 4.8 | 8.0 | 0.00 | 0.00 | 0.00 | 79 | 1010.1 |
| 20260507150058 | 26 | 203 | 1.6 | 8.0 | 0.00 | 0.00 | 0.00 | 80 | 1010.5 |
| 20260507150002 | 26 | 198 | 1.6 | 8.0 | 0.00 | 0.00 | 0.00 | 79 | 1010.5 |
| 20260507144605 | 25 | 63 | 0.0 | 4.8 | 0.00 | 0.00 | 0.00 | 81 | 1010.9 |
| 20260507143101 | 25 | 56 | 1.6 | 6.4 | 0.00 | 0.00 | 0.00 | 82 | 1011.4 |
| 20260507141619 | 25 | 56 | 3.2 | 4.8 | 0.00 | 0.00 | 0.00 | 82 | 1011.7 |
| 20260507140109 | 25 | 98 | 0.0 | 3.2 | 0.00 | 0.00 | 0.00 | 82 | 1012.0 |
| 20260507140001 | 25 | 56 | 0.0 | 3.2 | 0.00 | 0.00 | 0.00 | 82 | 1012.0 |
| 20260507134608 | 24 | 53 | 1.6 | 4.8 | 0.00 | 0.00 | 0.00 | 83 | 1012.3 |
| 20260507133103 | 25 | 39 | 3.2 | 6.4 | 0.00 | 0.00 | 0.00 | 83 | 1012.5 |
| 20260507131601 | 24 | 92 | 0.0 | 3.2 | 0.00 | 0.00 | 0.00 | 84 | 1012.7 |
| 20260507130058 | 24 | 83 | 1.6 | 6.4 | 0.00 | 0.00 | 0.00 | 84 | 1012.9 |
| 20260507130003 | 24 | 65 | 3.2 | 6.4 | 0.00 | 0.00 | 0.00 | 84 | 1012.9 |
| 20260507124604 | 24 | 64 | 3.2 | 6.4 | 0.00 | 0.00 | 0.00 | 86 | 1013.1 |
| 20260507123057 | 23 | 360 | 0.0 | 4.8 | 0.00 | 0.00 | 0.00 | 88 | 1013.0 |
| 20260507121558 | 23 | 252 | 0.0 | 3.2 | 0.00 | 0.00 | 0.00 | 89 | 1013.1 |
| 20260507120059 | 23 | 261 | 0.0 | 3.2 | 0.00 | 0.00 | 0.00 | 89 | 1013.1 |
| 20260507120001 | 22 | 261 | 0.0 | 3.2 | 0.00 | 0.00 | 0.00 | 90 | 1013.1 |
| 20260507114603 | 22 | 257 | 0.0 | 4.8 | 0.00 | 0.00 | 0.00 | 91 | 1013.1 |
| 20260507113058 | 22 | 259 | 1.6 | 3.2 | 0.00 | 0.00 | 0.00 | 91 | 1013.2 |
| 20260507111602 | 22 | 262 | 0.0 | 3.2 | 0.00 | 0.00 | 0.00 | 92 | 1013.3 |
| 20260507110058 | 21 | 259 | 0.0 | 4.8 | 0.00 | 0.00 | 0.00 | 92 | 1013.2 |
| 20260507110002 | 21 | 259 | 0.0 | 4.8 | 0.00 | 0.00 | 0.00 | 92 | 1013.2 |
| 20260507104600 | 21 | 261 | 0.0 | 3.2 | 0.00 | 0.00 | 0.00 | 93 | 1013.2 |
| 20260507103057 | 21 | 262 | 0.0 | 3.2 | 0.00 | 0.00 | 0.00 | 93 | 1013.1 |
| 20260507101629 | 21 | 260 | 1.6 | 3.2 | 0.00 | 0.00 | 0.00 | 93 | 1013.1 |
| 20260507100057 | 21 | 260 | 0.0 | 4.8 | 0.00 | 0.00 | 0.00 | 93 | 1013.0 |
| 20260507100001 | 21 | 259 | 1.6 | 4.8 | 0.00 | 0.00 | 0.00 | 93 | 1013.0 |
| 20260507094558 | 21 | 257 | 0.0 | 0.0 | 0.00 | 0.00 | 0.00 | 93 | 1013.0 |
| 20260507093059 | 21 | 258 | 0.0 | 1.6 | 0.00 | 0.00 | 0.00 | 93 | 1012.8 |
| 20260507091558 | 21 | 257 | 0.0 | 1.6 | 0.00 | 0.00 | 0.00 | 93 | 1012.8 |
| 20260507090112 | 21 | 257 | 0.0 | 3.2 | 0.00 | 0.00 | 0.00 | 93 | 1012.9 |
| 20260507090002 | 21 | 257 | 0.0 | 3.2 | 0.00 | 0.00 | 0.00 | 93 | 1012.9 |
| 20260507084557 | 21 | 258 | 0.0 | 1.6 | 0.00 | 0.00 | 0.00 | 93 | 1012.7 |
| 20260507083058 | 21 | 258 | 0.0 | 3.2 | 0.00 | 0.00 | 0.00 | 93 | 1012.6 |
| 20260507081558 | 21 | 258 | 0.0 | 3.2 | 0.00 | 0.00 | 0.00 | 93 | 1012.7 |
| 20260507080058 | 21 | 258 | 0.0 | 3.2 | 0.00 | 0.00 | 0.00 | 93 | 1012.5 |
| 20260507080001 | 21 | 258 | 0.0 | 3.2 | 0.00 | 0.00 | 0.00 | 93 | 1012.5 |
| 20260507074600 | 21 | 259 | 0.0 | 3.2 | 0.00 | 0.00 | 0.00 | 93 | 1012.6 |
| 20260507073058 | 22 | 36 | 1.6 | 3.2 | 0.00 | 0.00 | 0.00 | 93 | 1012.8 |
| 20260507071606 | 22 | 36 | 0.0 | 0.0 | 0.00 | 0.00 | 0.00 | 93 | 1012.8 |
| 20260507070059 | 22 | 36 | 0.0 | 0.0 | 0.00 | 0.00 | 0.00 | 93 | 1012.9 |
| 20260507070000 | 22 | 36 | 0.0 | 0.0 | 0.00 | 0.00 | 0.00 | 93 | 1012.9 |
| 20260507064618 | 22 | 36 | 0.0 | 1.6 | 0.00 | 0.00 | 0.00 | 93 | 1013.0 |
| 20260507063058 | 22 | 36 | 0.0 | 1.6 | 0.00 | 0.00 | 0.00 | 93 | 1013.3 |
| 20260507061559 | 22 | 36 | 0.0 | 3.2 | 0.00 | 0.00 | 0.00 | 93 | 1013.4 |
| 20260507060059 | 22 | 36 | 0.0 | 1.6 | 0.00 | 0.00 | 0.00 | 93 | 1013.6 |
| 20260507060003 | 22 | 36 | 0.0 | 1.6 | 0.00 | 0.00 | 0.00 | 93 | 1013.6 |
| 20260507054608 | 22 | 36 | 0.0 | 3.2 | 0.00 | 0.00 | 0.00 | 93 | 1013.8 |
| 20260507053059 | 22 | 36 | 0.0 | 1.6 | 0.00 | 0.00 | 0.00 | 93 | 1013.9 |
| 20260507051558 | 22 | 36 | 0.0 | 3.2 | 0.00 | 0.00 | 0.00 | 93 | 1014.0 |
| 20260507050003 | 22 | 36 | 0.0 | 0.0 | 0.00 | 0.00 | 0.00 | 93 | 1014.3 |
| 20260507044558 | 22 | 36 | 0.0 | 1.6 | 0.00 | 0.00 | 0.00 | 93 | 1014.5 |
| 20260507043102 | 22 | 36 | 0.0 | 1.6 | 0.00 | 0.00 | 0.00 | 93 | 1014.9 |
| 20260507041610 | 22 | 36 | 0.0 | 3.2 | 0.00 | 0.00 | 0.00 | 93 | 1014.9 |
| 20260507040059 | 22 | 36 | 0.0 | 3.2 | 0.00 | 0.00 | 0.00 | 93 | 1014.8 |
| 20260507040001 | 22 | 36 | 0.0 | 3.2 | 0.00 | 0.00 | 0.00 | 93 | 1014.8 |
| 20260507034610 | 22 | 36 | 0.0 | 3.2 | 0.00 | 0.00 | 0.00 | 93 | 1014.9 |
| 20260507033059 | 22 | 36 | 0.0 | 6.4 | 0.00 | 0.00 | 0.00 | 93 | 1015.0 |
| 20260507031604 | 22 | 37 | 1.6 | 6.4 | 0.00 | 0.00 | 0.00 | 93 | 1015.0 |
| 20260507030104 | 22 | 21 | 1.6 | 3.2 | 0.00 | 0.00 | 0.00 | 93 | 1015.0 |
| 20260507030003 | 22 | 21 | 0.0 | 3.2 | 0.00 | 0.00 | 0.00 | 93 | 1015.0 |
| 20260507024607 | 22 | 21 | 0.0 | 1.6 | 0.00 | 0.00 | 0.00 | 93 | 1015.1 |
| 20260507023113 | 22 | 21 | 0.0 | 1.6 | 0.00 | 0.00 | 0.00 | 93 | 1015.3 |
| 20260507021600 | 22 | 21 | 0.0 | 1.6 | 0.00 | 0.00 | 0.00 | 93 | 1015.4 |
| 20260507020059 | 22 | 21 | 0.0 | 1.6 | 0.00 | 0.00 | 0.00 | 93 | 1015.6 |
| 20260507020002 | 22 | 21 | 0.0 | 1.6 | 0.00 | 0.00 | 0.00 | 93 | 1015.6 |
| 20260507014608 | 22 | 21 | 0.0 | 3.2 | 0.00 | 0.00 | 0.00 | 92 | 1015.5 |
| 20260507013114 | 22 | 21 | 0.0 | 3.2 | 0.00 | 0.00 | 0.00 | 92 | 1015.7 |
| 20260507011600 | 22 | 22 | 0.0 | 4.8 | 0.00 | 0.00 | 0.00 | 92 | 1015.8 |
| 20260507010059 | 22 | 23 | 1.6 | 4.8 | 0.00 | 0.00 | 0.00 | 91 | 1015.8 |
| 20260507010003 | 22 | 23 | 3.2 | 4.8 | 0.00 | 0.00 | 0.00 | 91 | 1015.8 |